Regional Weather Roundup
Issued by NWS

Home | Current Version | Previous Version | Text Only | Print | Product List | Glossary Off
Versions: 1 2 3 4 5 6 7 8 9 10 11 12 13 14 15 16 17 18 19 20 21 22 23 24 25 26 27 28 29 30 31 32 33 34 35 36 37 38 39 40 41 42 43 44 45 46 47 48 49 50

000
ASUS43 KMPX 240001
RWRMN
WEATHER ROUNDUP FOR MINNESOTA
NATIONAL WEATHER SERVICE TWIN CITIES/CHANHASSEN MN
700 PM CDT SUN APR 23 2017


NOTE: "FAIR" INDICATES FEW OR NO CLOUDS BELOW 12,000 FEET WITH NO
SIGNIFICANT WEATHER AND/OR OBSTRUCTIONS TO VISIBILITY. N/A MEANS
CURRENT SKY AND/OR WEATHER CONDITIONS ARE NOT AVAILABLE.

MNZ060>063-068>070-240100-
   Twin Cities Metro

CITY           SKY/WX    TMP DP  RH WIND       PRES   REMARKS
TWIN CITIES    CLOUDY    68  36  30 SE8       29.88F
6HR MIN TEMP:  62; 6HR MAX TEMP:  70;

ST PAUL        CLOUDY    67  40  37 SE7       29.89F
CRYSTAL        CLOUDY    63  42  46 NE9       29.87F
BLAINE         PTSUNNY   61  43  51 NE12      29.89F
LAKEVILLE      MOSUNNY   68  30  24 SW3       29.88F
EDEN PRAIRIE   CLOUDY    70  28  21 S9        29.86F
6HR MIN TEMP:  63; 6HR MAX TEMP:  71;

SOUTH ST PAUL  CLOUDY    68  34  28 SE6       29.88F
LAKE ELMO      FAIR      64  41  42 SE3       29.90F
$$
MNZ001>005-007-008-013>017-022>024-027-028-240100-
   Northwest Minnesota

CITY           SKY/WX    TMP DP  RH WIND       PRES   REMARKS
BEMIDJI        CLOUDY    32  29  87 E13       30.04F WCI  22
HALLOCK        CLOUDY    37   7  28 E13       30.07F
ROSEAU         CLOUDY    37  18  44 E10       30.09F
WARROAD        CLOUDY    36  19  51 NE10      30.11F
THIEF RVR FALL FLURRIES  31  26  82 E18G25    30.07F WCI  19
CROOKSTON      CLOUDY    34  30  86 E15G24    30.04F WCI  24
FOSSTON        PTSUNNY   34  27  75 E14       30.03S WCI  24
DETROIT LAKES  CLOUDY    36  32  87 E13G23    29.95F
MOORHEAD       CLOUDY    39  32  75 E24       29.94F
PARK RAPIDS    CLOUDY    36  29  75 E12       29.98F
MAHNOMEN       CLOUDY    35  30  83 E20       29.97F WCI  24
$$
MNZ006-009>011-018-025>026-240100-
   North Central Minnesota

CITY           SKY/WX    TMP DP  RH WIND       PRES   REMARKS
BAUDETTE       CLOUDY    37  12  35 E12       30.09F
FLAG ISLAND    CLOUDY    36  12  38 SE5       30.11F
INTL FALLS     CLOUDY    37  13  37 E7        30.10F
6HR MIN TEMP:  34; 6HR MAX TEMP:  38;

WASKISH        LGT SNOW  30  28  93 E6        30.10F WCI  24
BIG FORK       CLOUDY    34  28  80 E6        30.09F WCI  29
LONGVILLE      CLOUDY    34  34 100 NE5       30.03F WCI  30
GRAND RAPIDS   CLOUDY    34  29  82 E9        30.08F WCI  27
CRANE LAKE     CLOUDY    37  12  35 NE3       30.12S
ORR            MIX PCPN  32  27  80 MISG      30.09S
COOK           CLOUDY    32  30  93 CALM      30.11S
WALKER         CLOUDY    33  29  86 NE9G16    30.03F WCI  25
$$
MNZ012-019>021-037-240100-
   Northeast Minnesota

CITY           SKY/WX    TMP DP  RH WIND       PRES   REMARKS
DULUTH         CLOUDY    33  29  85 E12       30.08F WCI  24
6HR MIN TEMP:  33; 6HR MAX TEMP:  36; 6HR PCP: TRACE;

ELY            LGT SNOW  34  30  86 SE7       30.11S WCI  28
HIBBING        CLOUDY    34  29  82 E8        30.09S WCI  27
EVELETH        CLOUDY    35  29  78 SE3       30.10F
DULUTH HARBOR  CLOUDY    37  30  75 NE21      30.11F
TWO HARBORS    CLOUDY    36  28  75 NE7       30.10F
SILVER BAY     CLOUDY    34  28  80 E10       30.12S WCI  26
GRAND MARAIS     N/A     34  26  72 SE3       30.19S
G MARAIS ARPRT CLOUDY    27  19  74 SE6       30.13S WCI  20
$$
MNZ029>031-032-039>041-046>048-054>057-064-240100-
   West Central Minnesota

CITY           SKY/WX    TMP DP  RH WIND       PRES   REMARKS
FERGUS FALLS   CLOUDY    45  36  70 E18G30    29.86F
WHEATON        MOSUNNY   59  41  51 E24       29.81F
MORRIS         SUNNY     57  45  62 E26       29.81S
ALEXANDRIA     SUNNY     50  38  63 NE21G26   29.88F
ELBOW LAKE     FAIR      52  40  62 E20G28    29.84F
WADENA         MOSUNNY   39  34  81 E14G25    29.93F
GLENWOOD       SUNNY     54  41  62 NE24      29.87S
APPLETON       SUNNY     72  25  17 SW12G18   29.78F
BENSON         SUNNY     72  10   9 SW13G22   29.81F
ORTONVILLE     SUNNY     70  30  23 SW6       29.77F
MADISON        SUNNY     73  28  19 SW15G24   29.78F
WILLMAR        FAIR      72  30  21 SW16G22   29.83S
$$
MNZ033>034-036-042>043-049>051-058-059-240100-
   Central Minnesota

CITY           SKY/WX    TMP DP  RH WIND       PRES   REMARKS
ST CLOUD       MOSUNNY   52  40  63 E12G21    29.90F
6HR MIN TEMP:  52; 6HR MAX TEMP:  56;

SAUK CENTRE    FAIR      52  40  62 E15G24    29.89S
PAYNESVILLE    SUNNY     57  41  55 E12G21    29.86F
AITKIN         CLOUDY    41  30  65 NE14G22   30.00F
PINE RIVER     CLOUDY    37  34  87 NE13G18   30.03F
BRAINERD       CLOUDY    41  33  73 NE15G23   29.98F
STAPLES        MOSUNNY   41  32  70 E12G21    29.95F
LONG PRAIRIE   FAIR      45  36  70 N16G22    29.91S
LITTLE FALLS   CLOUDY    45  34  65 NE6G20    29.94S
BUFFALO        MOSUNNY   59  41  52 NE14      29.88F
MAPLE LAKE     MOSUNNY   58  44  58 NE15      29.89S
HUTCHINSON     CLOUDY    71  32  23 S12G18    29.85F
$$
MNZ037-044-045-052-053-240100-
   East Central Minnesota

CITY           SKY/WX    TMP DP  RH WIND       PRES   REMARKS
PRINCETON      CLOUDY    54  37  54 NE12G18   29.92F
MORA           PTSUNNY   43  34  70 NE8G17    29.99F
CAMBRIDGE      PTSUNNY   54  37  54 NE12      29.91F
RUSH CITY      PTSUNNY   47  36  63 NE10G18   29.95F
MOOSE LAKE     PTSUNNY   36  30  80 NE13      30.02F
HINCKLEY       FAIR      41  36  81 NE15G21   29.98F
CLOQUET        CLOUDY    34  25  69 E13G18    30.06F WCI  25
MCGREGOR       CLOUDY    37  32  81 E12G20    30.04F
$$
MNZ071>073-080-081-089-090-097-098-240100-
   Southwest Minnesota

CITY           SKY/WX    TMP DP  RH WIND       PRES   REMARKS
MONTEVIDEO     SUNNY     72  30  21 SW14G22   29.80F
GRANITE FALLS  SUNNY     72  31  22 S17G25    29.82F
CANBY          SUNNY     72  28  19 SW13G21   29.80F
MARSHALL       SUNNY     71  30  21 SW21      29.80F
REDWOOD FALLS  SUNNY     71  28  20 S18G28    29.82F
OLIVIA         SUNNY     70  30  23 SW21G28   29.82F
PIPESTONE      SUNNY     68  18  14 SW22      29.82F
WINDOM         SUNNY     70  25  18 S17       29.85F
WORTHINGTON    CLOUDY    69  28  21 S18G26    29.85F
JACKSON        CLOUDY    68  27  21 S17G24    29.88F
TRACY          SUNNY     70  32  24 S17G25    29.83F
SLAYTON        SUNNY     68  27  21 S26       29.84F
$$
MNZ065>067-074>077-082>085-091>093-240100-
   South Central Minnesota

CITY           SKY/WX    TMP DP  RH WIND       PRES   REMARKS
MANKATO        CLOUDY    71  25  17 SW17      29.87F
NEW ULM        SUNNY     70  28  21 S15G23    29.84F
ST JAMES       CLOUDY    70  28  21 S17       29.87F
FAIRMONT       MOSUNNY   70  28  21 SW16      29.89F
GLENCOE        SUNNY     71  36  28 S9G18     29.85F
FARIBAULT      CLOUDY    70  30  23 S7        29.89F
OWATONNA       CLOUDY    70  23  17 S12G20    29.90F
WASECA         CLOUDY    70  30  23 S17G23    29.90F
ALBERT LEA     CLOUDY    68  21  17 S10       29.91F
$$
MNZ078>079-086>088-094>096-240100-
   Southeast Minnesota

CITY           SKY/WX    TMP DP  RH WIND       PRES   REMARKS
ROCHESTER      PTSUNNY   66  33  29 S10       29.93F
6HR MIN TEMP:  66; 6HR MAX TEMP:  70;

RED WING       CLOUDY    70  27  19 S5        29.89F
STANTON        CLOUDY    70  31  23 SW13G18   29.88F
DODGE CENTER   PTSUNNY   66  30  26 S12       29.92F
WINONA         CLOUDY    70  32  24 SW5       29.93F
AUSTIN         CLOUDY    66  28  24 S12       29.92F
PRESTON        CLOUDY    65  32  29 S6        29.94F
$$
ABBREVIATIONS USED IN REMARKS
   TC - TEMPERATURES IN CELSIUS
  WCI - WIND CHILL INDEX
   HX - HEAT INDEX
  VSB - VISIBILITY
$$




USA.gov is the U.S. government's official web portal to all federal, state and local government web resources and services.